Regional Weather Roundup
Issued by NWS

Home | Current Version | Previous Version | Graphics & Text | Print | Product List | Glossary On
Versions: 1 2 3 4 5 6 7 8 9 10 11 12 13 14 15 16 17 18 19 20 21 22 23 24 25 26 27 28 29 30 31 32 33 34 35 36 37 38 39 40 41 42 43 44 45 46 47 48 49 50
000
ASUS43 KMPX 291910
RWRMN
WEATHER ROUNDUP FOR MINNESOTA
NATIONAL WEATHER SERVICE TWIN CITIES/CHANHASSEN MN
100 PM CST THU JAN 29 2015


NOTE: "FAIR" INDICATES FEW OR NO CLOUDS BELOW 12,000 FEET WITH NO
SIGNIFICANT WEATHER AND/OR OBSTRUCTIONS TO VISIBILITY. N/A MEANS
CURRENT SKY AND/OR WEATHER CONDITIONS ARE NOT AVAILABLE.

MNZ060>063-068>070-292000-
   Twin Cities Metro

CITY           SKY/WX    TMP DP  RH WIND       PRES   REMARKS
TWIN CITIES    CLOUDY    30  19  63 NW25G32   30.25R WCI  16
ST PAUL        PTSUNNY   32  20  61 NW20G33   30.25R WCI  20
CRYSTAL        CLOUDY    30  19  63 NW18G28   30.25R WCI  18
BLAINE         CLOUDY    30  21  69 NW24G30   30.25R WCI  16
LAKEVILLE      PTSUNNY   28  21  74 NW24      30.22S WCI  14
EDEN PRAIRIE   CLOUDY    30  19  63 NW17G29   30.25R WCI  18
SOUTH ST PAUL  PTSUNNY   32  21  63 NW18G29   30.23R WCI  20
LAKE ELMO      CLOUDY    32  23  69 NW20G28   30.23R WCI  20
$$
MNZ001>005-007-008-013>017-022>024-027-028-292000-
   Northwest Minnesota

CITY           SKY/WX    TMP DP  RH WIND       PRES   REMARKS
BEMIDJI        CLOUDY    11   5  77 NW16G22   30.36R WCI  -6
HALLOCK        PTSUNNY    7   0  72 NW18      30.51S WCI -12
ROSEAU         SUNNY      9   3  78 NW12      30.43F WCI  -6
WARROAD        SUNNY      9   1  72 NW12      30.42S WCI  -6
THIEF RVR FALL PTSUNNY   10   3  72 NW16      30.45S WCI  -7
CROOKSTON      MOSUNNY   10   5  79 N24       30.51S WCI -10
FOSSTON        PTSUNNY   12   7  79 NW15      30.43R WCI  -4
DETROIT LAKES  LGT SNOW  14  10  85 N23G30    30.42R WCI  -5
MOORHEAD       MIX PCPN  16  10  79 N23G29    30.50R WCI  -2
PARK RAPIDS    PTSUNNY   16   9  74 NW18G32   30.34R WCI   0
MAHNOMEN       CLOUDY    12   6  77 NW17      30.43S WCI  -5
$$
MNZ006-009>011-018-025>026-292000-
   North Central Minnesota

CITY           SKY/WX    TMP DP  RH WIND       PRES   REMARKS
BAUDETTE       PTSUNNY    7   0  73 NW15      30.37R WCI -10
FLAG ISLAND    MOSUNNY    5   0  78 NW21      30.40R WCI -16
INTL FALLS     CLOUDY    11   3  70 NW15      30.30R WCI  -5
WASKISH        PTSUNNY   10   3  72 NW10      30.37S WCI  -3
BIG FORK       FLURRIES  10   3  72 NW7       30.31R WCI   0
LONGVILLE      FLURRIES  14   7  73 NW15G23   30.32R WCI  -1
GRAND RAPIDS   CLOUDY    14   9  79 NW21G30   30.26R WCI  -4
CRANE LAKE     LGT SNOW  12   9  85 NW13      30.27R WCI  -3
ORR            LGT SNOW  10   5  79 NW16      30.23R WCI  -7
COOK           LGT SNOW  12   7  79 W15G25    30.24R WCI  -4
WALKER         FLURRIES  14   7  76 NW12G18   30.34R WCI   0
$$
MNZ012-019>021-037-292000-
   Northeast Minnesota

CITY           SKY/WX    TMP DP  RH WIND       PRES   REMARKS
DULUTH         LGT SNOW  20  10  65 NW15G29   30.17R WCI   6
ELY            FLURRIES  16   9  73 NW10G22   30.17R WCI   3
HIBBING        MIX PCPN  15   6  67 NW22G28   30.23R WCI  -3
EVELETH        LGT SNOW  16  10  79 NW10G23   30.22R WCI   3
DULUTH HARBOR  CLOUDY    25  16  68 NW15      30.23R WCI  12
TWO HARBORS    LGT SNOW  27  18  69 NW10G16   30.15R WCI  17
SILVER BAY       N/A    N/A N/A N/A MISG        N/A
GRAND MARAIS     N/A     23   9  55 VRB7      30.15R WCI  15
G MARAIS ARPRT LGT SNOW  14   5  67 NW12G23   30.05R WCI   0
$$
MNZ029>031-032-039>041-046>048-054>057-064-292000-
   West Central Minnesota

CITY           SKY/WX    TMP DP  RH WIND       PRES   REMARKS
FERGUS FALLS   FLURRIES  16   9  73 N23G32    30.47R WCI  -2
WHEATON        FLURRIES  19  14  79 NW18G30   30.48R WCI   4
MORRIS         FLURRIES  21  14  73 NW26G36   30.41R WCI   4
ALEXANDRIA     FLURRIES  20  11  68 NW22G33   30.36R WCI   3
ELBOW LAKE     LGT SNOW  17  13  82 N21G30    30.42R WCI   0
GLENWOOD       PTSUNNY   21  16  79 NW23G33   30.36R WCI   5
APPLETON       CLOUDY    25  18  74 N25G32    30.43R WCI   9
BENSON         FLURRIES  23  12  63 N22G37    30.40S WCI   8
ORTONVILLE     CLOUDY    23  18  80 NW18G28   30.43S WCI   9
MADISON        CLOUDY    28  23  80 N17       30.42S WCI  16
WILLMAR        PTSUNNY   25  14  63 NW29G38   30.38R WCI   8
$$
MNZ033>034-036-042>043-049>051-058-059-292000-
   Central Minnesota

CITY           SKY/WX    TMP DP  RH WIND       PRES   REMARKS
ST CLOUD       CLOUDY    24  15  68 NW21G30   30.29R WCI   9
SAUK CENTRE    CLOUDY    22  13  69 NW22G30   30.34S WCI   7
PAYNESVILLE    CLOUDY    20  13  75 W22G30    30.34S WCI   4
AITKIN         FLURRIES  23  12  63 NW14G23   30.27R WCI  11
PINE RIVER     CLOUDY    18  10  73 N17G23    30.34R WCI   2
BRAINERD       MIX PCPN  20  11  68 NW22G28   30.30R WCI   3
STAPLES        PTSUNNY   18  10  73 NW18G24   30.33R WCI   2
LONG PRAIRIE   CLOUDY    21  14  73 W17G26    30.33R WCI   7
LITTLE FALLS   PTSUNNY   25  14  63 NW12G24   30.31S WCI  14
LITCHFIELD     CLOUDY    25  18  74 NW20G32   30.33R WCI  11
BUFFALO        CLOUDY    27  18  68 W17G23    30.30R WCI  14
MAPLE LAKE     CLOUDY    27  19  72 NW17G28   30.30R WCI  14
$$
MNZ037-044-045-052-053-292000-
   East Central Minnesota

CITY           SKY/WX    TMP DP  RH WIND       PRES   REMARKS
PRINCETON      CLOUDY    27  18  69 NW21G30   30.27R WCI  13
MORA           CLOUDY    27  18  69 NW16G26   30.26R WCI  14
CAMBRIDGE      CLOUDY    28  18  64 NW18G25   30.24R WCI  16
RUSH CITY      CLOUDY    26  18  69 NW15G24   30.24R WCI  14
MOOSE LAKE     CLOUDY    25  14  63 NW17G23   30.21R WCI  11
HINCKLEY       CLOUDY    27  19  74 NW15G22   30.23R WCI  15
CLOQUET        FLURRIES  21  12  68 NW18G28   30.20R WCI   6
MCGREGOR       CLOUDY    21  14  73 NW17G26   30.26R WCI   7
$$
MNZ071>073-080-081-089-090-097-098-292000-
   Southwest Minnesota

CITY           SKY/WX    TMP DP  RH WIND       PRES   REMARKS
MONTEVIDEO     CLOUDY    25  19  80 N26G32    30.41S WCI   9
GRANITE FALLS  CLOUDY    25  19  76 NW20G33   30.41S WCI  11
CANBY          CLOUDY    27  22  80 NW15G23   30.42S WCI  15
MARSHALL       CLOUDY    27  18  69 N22G29    30.40F WCI  12
REDWOOD FALLS  CLOUDY    26  18  71 NW18G32   30.37S WCI  13
OLIVIA         CLOUDY    25  19  80 NW25G32   30.36S WCI   9
PIPESTONE      CLOUDY    28  21  74 NW18G31   30.37S WCI  16
WINDOM         CLOUDY    27  21  80 NW28G36   30.35R WCI  11
WORTHINGTON    CLOUDY    28  19  69 N22G29    30.37R WCI  15
JACKSON        CLOUDY    30  23  74 NW26G38   30.34R WCI  16
TRACY          CLOUDY    27  22  82 NW20G29   30.38S WCI  14
SLAYTON        CLOUDY    26  21  81 NW17G25   30.37S WCI  13
$$
MNZ065>067-074>077-082>085-091>093-292000-
   South Central Minnesota

CITY           SKY/WX    TMP DP  RH WIND       PRES   REMARKS
MANKATO        CLOUDY   N/A N/A N/A NW28G35   30.27F
NEW ULM        CLOUDY    27  19  74 NW29G37   30.33R WCI  11
ST JAMES       CLOUDY    28  21  74 NW25G35   30.34R WCI  14
FAIRMONT       CLOUDY    30  21  69 NW28G38   30.30R WCI  16
GLENCOE        SUNNY     30  23  75 NW21G31   30.29S WCI  17
FARIBAULT      PTSUNNY   30  23  74 NW14G25   30.24S WCI  20
OWATONNA       PTSUNNY   30  25  80 NW25      30.23S WCI  16
WASECA         CLOUDY    32  27  80 NW22G29   30.27R WCI  19
ALBERT LEA     CLOUDY    30  25  80 NW17G25   30.23S WCI  18
$$
MNZ078>079-086>088-094>096-292000-
   Southeast Minnesota

CITY           SKY/WX    TMP DP  RH WIND       PRES   REMARKS
ROCHESTER      CLOUDY    30  23  75 NW25G33   30.17R WCI  16
RED WING       CLOUDY    34  21  60 NW20G26   30.19R WCI  22
STANTON        PTSUNNY   32  23  69 NW22G28   30.21R WCI  19
DODGE CENTER   CLOUDY    30  27  86 NW17G29   30.19R WCI  18
WINONA         CLOUDY    34  27  75 NW17G28   30.15S WCI  23
AUSTIN         CLOUDY    30  25  80 NW24G33   30.20S WCI  16
PRESTON        CLOUDY    30  24  78 NW16G25   30.16R WCI  19
$$
ABBREVIATIONS USED IN REMARKS
   TC - TEMPERATURES IN CELSIUS
  WCI - WIND CHILL INDEX
   HX - HEAT INDEX
  VSB - VISIBILITY
$$


USA.gov is the U.S. government's official web portal to all federal, state and local government web resources and services.